When you browse on this site, cookies collect data to enhance your experience and personalize the content and advertising you see.
Visit our Privacy Policy to learn more. By continuing to use the site, you agree to this use of cookies and data.
  • In Czech Republic
  • List of Countries
  • For 7 days
  • Water Temperature
  • Weather Map
  • Weather Widgets
  • user-avatar
    Login

    Hourly Weather La Paz

    Today, 23 February, Sunday

    Time Temperature Precipitation Wind Pressure Humidity
    00:00 +20°C° 0 mm 3 mps 701 mmHg 92%
    01:00 +20°C° 0 mm 3 mps 701 mmHg 92%
    02:00 +20°C° 0 mm 3 mps 700 mmHg 93%
    03:00 +20°C° 0 mm 3 mps 699 mmHg 93%
    04:00 +20°C° 0 mm 3 mps 700 mmHg 94%
    05:00 +20°C° 0 mm 3 mps 700 mmHg 95%
    06:00 +19°C° 0 mm 2 mps 700 mmHg 96%
    07:00 +21°C° 0.1 mm 3 mps 701 mmHg 87%
    08:00 +22°C° 0.1 mm 3 mps 701 mmHg 79%
    09:00 +25°C° 0.1 mm 3 mps 702 mmHg 70%
    10:00 +27°C° 0 mm 3 mps 702 mmHg 62%
    11:00 +28°C° 0 mm 4 mps 702 mmHg 54%
    12:00 +30°C° 0 mm 4 mps 701 mmHg 45%
    13:00 +32°C° 0 mm 4 mps 700 mmHg 44%
    14:00 +32°C° 0 mm 4 mps 699 mmHg 44%
    15:00 +32°C° 0 mm 4 mps 699 mmHg 43%
    16:00 +29°C° 0 mm 3 mps 698 mmHg 52%
    17:00 +27°C° 0 mm 3 mps 698 mmHg 61%
    18:00 +24°C° 0 mm 2 mps 698 mmHg 69%
    19:00 +23°C° 0 mm 2 mps 699 mmHg 78%
    20:00 +21°C° 0 mm 2 mps 699 mmHg 86%
    21:00 +19°C° 0 mm 2 mps 699 mmHg 95%
    22:00 +20°C° 0 mm 1 mps 699 mmHg 95%
    23:00 +19°C° 0 mm 1 mps 699 mmHg 96%

    Tomorrow, 24 February, Monday

    Time Temperature Precipitation Wind Pressure Humidity
    00:00 +19°C° 0 mm 1 mps 699 mmHg 96%
    01:00 +19°C° 0 mm 1 mps 698 mmHg 96%
    02:00 +18°C° 0 mm 1 mps 698 mmHg 96%
    03:00 +18°C° 0 mm 1 mps 698 mmHg 96%
    04:00 +18°C° 0 mm 1 mps 698 mmHg 95%
    05:00 +16°C° 0 mm 0 mps 698 mmHg 95%
    06:00 +15°C° 0 mm 0 mps 699 mmHg 95%
    07:00 +19°C° 0 mm 0 mps 700 mmHg 81%
    08:00 +23°C° 0 mm 0 mps 701 mmHg 67%
    09:00 +26°C° 0 mm 0 mps 701 mmHg 53%
    10:00 +30°C° 0 mm 1 mps 701 mmHg 46%
    11:00 +33°C° 0 mm 1 mps 700 mmHg 39%
    12:00 +36°C° 0 mm 2 mps 700 mmHg 32%
    13:00 +36°C° 0 mm 2 mps 699 mmHg 31%
    14:00 +36°C° 0 mm 3 mps 698 mmHg 31%
    15:00 +36°C° 0 mm 3 mps 697 mmHg 31%
    16:00 +33°C° 0 mm 3 mps 697 mmHg 39%
    17:00 +30°C° 0 mm 2 mps 697 mmHg 47%
    18:00 +27°C° 0 mm 2 mps 697 mmHg 55%
    19:00 +26°C° 0 mm 2 mps 697 mmHg 65%
    20:00 +24°C° 0 mm 2 mps 698 mmHg 75%
    21:00 +23°C° 0 mm 1 mps 698 mmHg 85%
    22:00 +22°C° 0 mm 1 mps 698 mmHg 88%
    23:00 +22°C° 0 mm 1 mps 698 mmHg 91%

    Day after tomorrow, 25 February, Tuesday

    Time Temperature Precipitation Wind Pressure Humidity
    00:00 +21°C° 0 mm 1 mps 698 mmHg 93%
    01:00 +21°C° 0 mm 1 mps 697 mmHg 94%
    02:00 +21°C° 0 mm 1 mps 697 mmHg 95%
    03:00 +21°C° 0 mm 1 mps 696 mmHg 96%
    04:00 +20°C° 0 mm 1 mps 697 mmHg 95%
    05:00 +20°C° 0 mm 1 mps 697 mmHg 94%
    06:00 +20°C° 0 mm 1 mps 697 mmHg 94%
    07:00 +23°C° 0 mm 2 mps 698 mmHg 80%
    08:00 +26°C° 0 mm 2 mps 699 mmHg 66%
    09:00 +29°C° 0 mm 2 mps 700 mmHg 52%
    10:00 +30°C° 0 mm 3 mps 699 mmHg 47%
    11:00 +33°C° 0 mm 3 mps 699 mmHg 41%
    12:00 +35°C° 0 mm 3 mps 699 mmHg 36%
    13:00 +34°C° 0 mm 4 mps 698 mmHg 37%
    14:00 +34°C° 0 mm 4 mps 698 mmHg 37%
    15:00 +34°C° 0 mm 4 mps 697 mmHg 38%
    16:00 +32°C° 0 mm 4 mps 697 mmHg 46%
    17:00 +29°C° 0 mm 3 mps 697 mmHg 55%
    18:00 +27°C° 0 mm 3 mps 696 mmHg 63%
    19:00 +26°C° 0 mm 2 mps 697 mmHg 71%
    20:00 +24°C° 0 mm 2 mps 698 mmHg 79%
    21:00 +23°C° 0 mm 1 mps 698 mmHg 88%
    22:00 +23°C° 0.1 mm 1 mps 698 mmHg 88%
    23:00 +22°C° 0.1 mm 1 mps 698 mmHg 89%

    26 February, Wednesday

    Time Temperature Precipitation Wind Pressure Humidity
    00:00 +22°C° 0.1 mm 1 mps 698 mmHg 90%
    01:00 +22°C° 0 mm 1 mps 698 mmHg 90%
    02:00 +22°C° 0 mm 1 mps 697 mmHg 91%
    03:00 +21°C° 0 mm 1 mps 697 mmHg 91%
    04:00 +19°C° 0 mm 0 mps 698 mmHg 91%
    05:00 +19°C° 0 mm 0 mps 698 mmHg 92%
    06:00 +19°C° 0 mm 0 mps 698 mmHg 92%
    07:00 +22°C° 0 mm 0 mps 699 mmHg 80%
    08:00 +25°C° 0 mm 0 mps 700 mmHg 69%
    09:00 +30°C° 0 mm 1 mps 701 mmHg 58%
    10:00 +31°C° 0 mm 1 mps 700 mmHg 51%
    11:00 +32°C° 0 mm 2 mps 700 mmHg 44%
    12:00 +35°C° 0 mm 2 mps 699 mmHg 37%
    13:00 +35°C° 0 mm 2 mps 699 mmHg 37%
    14:00 +34°C° 0 mm 2 mps 698 mmHg 37%
    15:00 +34°C° 0 mm 2 mps 697 mmHg 37%
    16:00 +31°C° 0.1 mm 2 mps 698 mmHg 44%
    17:00 +29°C° 0.1 mm 2 mps 698 mmHg 52%
    18:00 +28°C° 0.1 mm 2 mps 698 mmHg 60%
    19:00 +26°C° 0.1 mm 2 mps 698 mmHg 68%
    20:00 +25°C° 0.1 mm 1 mps 699 mmHg 77%
    21:00 +23°C° 0.1 mm 1 mps 700 mmHg 85%
    22:00 +23°C° 0 mm 1 mps 699 mmHg 88%
    23:00 +22°C° 0 mm 1 mps 699 mmHg 91%

    27 February, Thursday

    Time Temperature Precipitation Wind Pressure Humidity
    00:00 +21°C° 0 mm 1 mps 699 mmHg 93%
    01:00 +20°C° 0 mm 2 mps 699 mmHg 94%
    02:00 +19°C° 0 mm 2 mps 699 mmHg 95%
    03:00 +19°C° 0 mm 2 mps 699 mmHg 96%
    04:00 +19°C° 0 mm 2 mps 699 mmHg 96%
    05:00 +19°C° 0 mm 2 mps 699 mmHg 97%
    06:00 +19°C° 0 mm 2 mps 699 mmHg 98%
    07:00 +21°C° 0 mm 2 mps 700 mmHg 88%
    08:00 +24°C° 0 mm 3 mps 701 mmHg 79%
    09:00 +26°C° 0 mm 3 mps 702 mmHg 70%
    10:00 +27°C° 0.1 mm 4 mps 702 mmHg 65%
    11:00 +28°C° 0.1 mm 4 mps 701 mmHg 60%
    12:00 +29°C° 0.1 mm 5 mps 701 mmHg 56%
    13:00 +28°C° 0.2 mm 5 mps 701 mmHg 60%
    14:00 +27°C° 0.2 mm 5 mps 700 mmHg 64%
    15:00 +26°C° 0.2 mm 5 mps 700 mmHg 68%
    16:00 +25°C° 0 mm 4 mps 700 mmHg 75%
    17:00 +22°C° 0 mm 4 mps 700 mmHg 82%
    18:00 +20°C° 0 mm 4 mps 700 mmHg 89%
    19:00 +20°C° 0 mm 4 mps 701 mmHg 90%
    20:00 +19°C° 0 mm 4 mps 701 mmHg 91%
    21:00 +19°C° 0 mm 4 mps 702 mmHg 92%
    22:00 +19°C° 0 mm 4 mps 702 mmHg 92%
    23:00 +19°C° 0 mm 4 mps 701 mmHg 92%

    28 February, Friday

    Time Temperature Precipitation Wind Pressure Humidity
    00:00 +19°C° 0 mm 3 mps 701 mmHg 91%
    01:00 +18°C° 0 mm 3 mps 701 mmHg 92%
    02:00 +18°C° 0 mm 3 mps 701 mmHg 92%
    03:00 +18°C° 0 mm 3 mps 700 mmHg 92%
    04:00 +18°C° 0 mm 3 mps 701 mmHg 92%
    05:00 +18°C° 0 mm 3 mps 701 mmHg 92%
    06:00 +18°C° 0 mm 3 mps 701 mmHg 93%
    07:00 +20°C° 0 mm 3 mps 702 mmHg 86%
    08:00 +21°C° 0 mm 4 mps 703 mmHg 79%
    09:00 +23°C° 0 mm 4 mps 703 mmHg 72%
    10:00 +25°C° 0 mm 4 mps 703 mmHg 66%
    11:00 +26°C° 0 mm 4 mps 703 mmHg 61%
    12:00 +28°C° 0 mm 5 mps 703 mmHg 56%
    13:00 +27°C° 0 mm 5 mps 702 mmHg 56%
    14:00 +27°C° 0 mm 5 mps 701 mmHg 56%
    15:00 +27°C° 0 mm 5 mps 701 mmHg 56%
    16:00 +25°C° 0 mm 4 mps 701 mmHg 65%
    17:00 +22°C° 0 mm 4 mps 701 mmHg 74%
    18:00 +20°C° 0 mm 4 mps 701 mmHg 83%
    19:00 +19°C° 0 mm 4 mps 701 mmHg 86%
    20:00 +19°C° 0 mm 4 mps 702 mmHg 90%
    21:00 +18°C° 0 mm 4 mps 702 mmHg 93%
    22:00 +18°C° 0 mm 4 mps 702 mmHg 93%
    23:00 +18°C° 0 mm 4 mps 702 mmHg 92%
    Show more